Вернуться в каталог

STARLINK-31098

АктивенСвязьVLEO
NORAD 58716·PAYLOAD·🇺🇸 United States

Запущен Jan 3, 2024 с Vandenberg Space Force Base

Loading…

Ближайшие Пролёты (ближайшие 24 часа)

TLE

СвежийSource: CelesTrak SupGP

Эпоха: Sep 14, 2026, 20:35 UTC

1 58716C 24002M   26257.85812500  .00014889  00000+0  44002-3 0  2575
2 58716  53.1591  70.0664 0001247  86.3662 317.8652 15.34375175    15

Отслеживайте STARLINK-31098 в реальном времени с AllMySat

Download on the App Store